Regional Weather Roundup
Issued by NWS Goodland, KS

Home | Current Version | Previous Version | Text Only | Print | Product List | Glossary On
Versions: 1 2 3 4 5 6 7 8 9 10 11 12 13 14 15 16 17 18 19 20 21 22 23 24 25 26 27 28 29 30 31 32 33 34 35 36 37 38 39 40 41 42 43 44 45 46 47 48 49 50
000
ASUS43 KGLD 222208
RWRGLD

GOODLAND FORECAST AREA HOURLY WEATHER ROUNDUP
NATIONAL WEATHER SERVICE GOODLAND KS
400 PM MDT THU JUN 22 2017

...OFFICIAL OBSERVATIONS...

CITY           SKY/WX    TMP DP  RH WIND       PRES   REMARKS
GOODLAND KS    SUNNY     88  61  40 NE20G31   29.78R
HILL CITY KS   SUNNY    102  57  22 N16G23    29.63S HX 101
IMPERIAL NEB   SUNNY     87  54  32 NE22G30   29.80R
MCCOOK NEB     SUNNY     90  64  42 NE21G28   29.73R
AKRON CO       MOSUNNY   82  50  32 N18G24    29.91F
BURLINGTON CO  SUNNY     87  55  33 N15G23    29.85R
LIMON CO       CLOUDY    75  53  46 SE7       29.96F
$$

...UNOFFICIAL OBSERVATIONS...

CITY           SKY/WX    TMP DP  RH WIND       PRES   REMARKS
LENORA KS        N/A     96  32  10 MISG        N/A
NORTON KS      SUNNY     93  52  24 N15G23    29.67S
SHARON SPRINGS   N/A     92  58  31 NE12G22     N/A
TRENTON NEB      N/A     87  32  14 N13         N/A
KIT CARSON CO    N/A     86  53  32 MISG        N/A
YUMA CO        FAIR      84  52  32 N15G23    29.87R
$$




USA.gov is the U.S. government's official web portal to all federal, state and local government web resources and services.